Peoria, IL

9:14 PM CST on December 16, 2017 (GMT -0600)
Greater Peoria Regional

Weather History for KPIA - June, 2012

Change the Weather History Date:

Monday, June 25, 2012

  Actual Average Record
Temperature  
Mean Temperature 72 °F 74 °F  
Max Temperature 82 °F 85 °F 105 °F (1988)
Min Temperature 61 °F 64 °F 49 °F (1974)
Degree Days  
Heating Degree Days 0 0  
Month to date heating degree days 10 17  
Since 1 June heating degree days 10 17  
Since 1 July heating degree days 4593 5830  
Cooling Degree Days 7 10  
Month to date cooling degree days 192 172  
Year to date cooling degree days 385 253  
Since 1 June cooling degree days 192 172  
Growing Degree Days 23 (Base 50)    
Moisture  
Dew Point 53 °F    
Average Humidity 60    
Maximum Humidity 90    
Minimum Humidity 30    
Precipitation  
Precipitation 0.00 in 0.12 in 3.73 in (1968)
Month to date precipitation 2.15 2.94  
Year to date precipitation 11.56 17.27  
Snow  
Snow 0.00 in 0.00 in 0.00 in ()
Month to date snowfall 0.0 0.0  
Since 1 June snowfall 0.0 0.0  
Since 1 July snowfall 11.5 24.6  
Snow Depth 0.00 in    
Sea Level Pressure  
Sea Level Pressure 30.00 in    
Wind  
Wind Speed 12 mph (NE)    
Max Wind Speed 20 mph    
Max Gust Speed 26 mph    
Visibility 10 miles    
Events      
T = Trace of Precipitation, MM = Missing Value Source: NWS Daily Summary

Daily Weather History Graph

Daily Weather History Graph

Search for Another Location

Airport or City:

Trip Planner

Search our weather history database for the weather conditions in past years. The results will help you decide how hot, cold, wet, or windy it might be!

Date:

Astronomy

Jun. 25, 2012 Rise Set
Actual Time 5:29 AM CDT 8:33 PM CDT
Civil Twilight 4:55 AM CDT 9:07 PM CDT
Nautical Twilight 4:13 AM CDT 9:49 PM CDT
Astronomical Twilight 3:23 AM CDT 10:39 PM CDT
Moon 11:41 AM CDT (6/25) 11:59 PM CDT (6/25)
Length of Visible Light 16h 11m
Length of Day
15h 04m
Waxing Crescent, 34% of the Moon is Illuminated
Jun 25
Waxing Crescent
Jun 26
First Quarter
Jul 3
Full
Jul 10
Last Quarter
Jul 18
New

Hourly Weather History & Observations

Time (CDT) Temp. Dew Point Humidity Pressure Visibility Wind Dir Wind Speed Gust Speed Precip Events Conditions
12:54 AM 72.0 °F 68.0 °F 87% 29.92 in 9.0 mi Calm Calm - N/A   Overcast
1:54 AM 73.9 °F 68.0 °F 82% 29.93 in 10.0 mi Calm Calm - N/A   Mostly Cloudy
2:54 AM 73.9 °F 64.9 °F 73% 29.95 in 10.0 mi ENE 13.8 mph - N/A   Partly Cloudy
3:54 AM 72.0 °F 62.1 °F 71% 29.96 in 10.0 mi ENE 12.7 mph - N/A   Mostly Cloudy
4:54 AM 70.0 °F 61.0 °F 73% 29.98 in 10.0 mi NE 13.8 mph - N/A   Clear
5:54 AM 70.0 °F 57.9 °F 65% 29.99 in 10.0 mi ENE 17.3 mph 23.0 mph N/A   Overcast
6:54 AM 69.1 °F 57.0 °F 65% 30.01 in 10.0 mi ENE 15.0 mph 21.9 mph N/A   Partly Cloudy
7:54 AM 71.1 °F 55.9 °F 59% 30.02 in 10.0 mi NE 13.8 mph 21.9 mph N/A   Clear
8:54 AM 73.0 °F 52.0 °F 48% 30.03 in 10.0 mi NE 17.3 mph 23.0 mph N/A   Clear
9:54 AM 75.0 °F 52.0 °F 44% 30.04 in 10.0 mi ENE 17.3 mph 23.0 mph N/A   Clear
10:54 AM 78.1 °F 52.0 °F 40% 30.04 in 10.0 mi NE 11.5 mph - N/A   Clear
11:54 AM 78.1 °F 48.0 °F 35% 30.04 in 10.0 mi NE 11.5 mph - N/A   Clear
12:54 PM 79.0 °F 46.9 °F 32% 30.04 in 10.0 mi ENE 13.8 mph - N/A   Clear
1:54 PM 80.1 °F 46.0 °F 30% 30.02 in 10.0 mi NE 13.8 mph - N/A   Clear
2:54 PM 81.0 °F 46.9 °F 30% 30.01 in 10.0 mi ENE 12.7 mph 20.7 mph N/A   Clear
3:54 PM 82.0 °F 48.9 °F 31% 30.01 in 10.0 mi NE 11.5 mph - N/A   Clear
4:54 PM 81.0 °F 48.0 °F 31% 30.00 in 10.0 mi NE 13.8 mph 19.6 mph N/A   Clear
5:54 PM 80.1 °F 48.9 °F 34% 29.99 in 10.0 mi NE 10.4 mph - N/A   Clear
6:54 PM 78.1 °F 48.9 °F 36% 30.00 in 10.0 mi NE 10.4 mph - N/A   Clear
7:54 PM 73.9 °F 48.0 °F 40% 29.99 in 10.0 mi NE 9.2 mph - N/A   Clear
8:54 PM 69.1 °F 46.0 °F 44% 30.00 in 10.0 mi NE 8.1 mph - N/A   Clear
9:54 PM 68.0 °F 43.0 °F 40% 30.02 in 10.0 mi ENE 10.4 mph - N/A   Clear
10:54 PM 64.9 °F 42.1 °F 43% 30.03 in 10.0 mi ENE 10.4 mph - N/A   Clear
11:54 PM 63.0 °F 45.0 °F 52% 30.04 in 10.0 mi ENE 11.5 mph - N/A   Clear